Regional Weather Roundup
Issued by NWS Sioux Falls, SD

Home | Current Version | Previous Version | Text Only | Print | Product List | Glossary On
Versions: 1 2 3 4 5 6 7 8 9 10 11 12 13 14 15 16 17 18 19 20 21 22 23 24 25 26 27 28 29 30 31 32 33 34 35 36 37 38 39 40 41 42 43 44 45 46 47 48 49 50
000
ASUS43 KFSD 182202
RWRFSD

WEATHER ROUNDUP FOR SE SOUTH DAKOTA/SW MINNESOTA/NW IOWA
NATIONAL WEATHER SERVICE SIOUX FALLS SD
500 PM CDT SAT APR 18 2015

NOTE: "FAIR" INDICATES FEW OR NO CLOUDS BELOW 12,000 FEET WITH NO
SIGNIFICANT WEATHER AND OR OBSTRUCTIONS TO VISIBILITY.


SDZ038>040-050-052>070-182300-
SOUTHEAST SOUTH DAKOTA

CITY           SKY/WX    TMP DP  RH WIND       PRES   REMARKS
BROOKINGS      CLOUDY    61  55  82 SE10      29.88F
CHAMBERLAIN    NOT AVBL
HURON          RAIN      55  53  93 E9        29.87F FOG
MADISON        LGT RAIN  57  57 100 SE13      29.87S
MITCHELL       LGT RAIN  56  55  97 E6        29.86F FOG
SIOUX FALLS    LGT RAIN  58  56  93 SE15      29.86S
WINNER         CLOUDY    60  53  77 CALM      29.83F
YANKTON        CLOUDY    63  55  77 E12       29.82F
$$

MNZ071-072-080-081-089-090-097-098-182300-
SOUTHWEST MINNESOTA

CITY           SKY/WX    TMP DP  RH WIND       PRES   REMARKS
FAIRMONT       CLOUDY    59  52  77 SE9       29.90R
JACKSON        LGT RAIN  57  54  88 NE6       29.87F
LUVERNE        LGT RAIN  59  54  82 SE5       29.88F
MARSHALL       CLOUDY    66  46  48 S15       29.88F
MONTEVIDEO     CLOUDY    72  32  23 SE16      29.88F
PIPESTONE      LGT RAIN  57  55  94 S9        29.88F
REDWOOD FALLS  CLOUDY    68  42  38 S12       29.88F
TRACY          CLOUDY    65  53  63 S7        29.89F
WINDOM         CLOUDY    57  55  94 CALM      29.89F
WORTHINGTON    CLOUDY    55  52  88 SE6       29.90S
$$

IAZ001>003-012>014-020>022-031-032-NEZ013-014-SDZ071-182300-
NORTHWEST IOWA

CITY           SKY/WX    TMP DP  RH WIND       PRES   REMARKS
DENISON        LGT RAIN  59  59 100 E8        29.86S
ESTHERVILLE    LGT RAIN  56  53  90 SW16      29.90R
SIOUX CITY     CLOUDY    62  57  83 SE10      29.84F
SPENCER        RAIN      57  55  93 E7        29.90F FOG
$$

ABBREVIATIONS USED IN REMARKS
   TC - TEMPERATURE IN CELSIUS
  WCI - WIND CHILL INDEX
   HX - HEAT INDEX
  VSB - VISIBILITY



USA.gov is the U.S. government's official web portal to all federal, state and local government web resources and services.